| time (UTC) | temp F | wind direction | speed knots | gust knots | rain 1hr in | rain 24hr in | rain mn in | humidity % | barometer mb |
| 20260509000023 | 63 | 24 | 0.0 | 1.7 | 0.00 | 0.00 | 0.00 | 72 | 1012.3 |
| 20260508234524 | 64 | 191 | 0.0 | 0.9 | 0.00 | 0.00 | 0.00 | 70 | 1012.3 |
| 20260508233021 | 65 | 257 | 0.0 | 3.5 | 0.00 | 0.00 | 0.00 | 66 | 1012.2 |
| 20260508231519 | 66 | 335 | 0.9 | 4.3 | 0.00 | 0.00 | 0.00 | 61 | 1012.2 |
| 20260508230022 | 66 | 279 | 0.9 | 7.0 | 0.00 | 0.00 | 0.00 | 62 | 1012.0 |
| 20260508224524 | 67 | 280 | 0.9 | 7.8 | 0.00 | 0.00 | 0.00 | 62 | 1012.1 |
| 20260508223015 | 66 | 111 | 0.9 | 4.3 | 0.00 | 0.00 | 0.00 | 61 | 1012.1 |
| 20260508221514 | 66 | 301 | 1.7 | 4.3 | 0.00 | 0.00 | 0.00 | 59 | 1012.2 |
| 20260508220023 | 66 | 288 | 0.9 | 6.1 | 0.00 | 0.00 | 0.00 | 59 | 1012.1 |
| 20260508214525 | 67 | 206 | 4.3 | 10.4 | 0.00 | 0.00 | 0.00 | 61 | 1012.2 |
| 20260508213013 | 67 | 277 | 1.7 | 7.8 | 0.00 | 0.00 | 0.00 | 59 | 1011.8 |
| 20260508211523 | 67 | 267 | 1.7 | 5.2 | 0.00 | 0.00 | 0.00 | 58 | 1011.9 |
| 20260508210007 | 67 | 269 | 0.9 | 6.1 | 0.00 | 0.00 | 0.00 | 58 | 1012.1 |
| 20260508204507 | 67 | 296 | 0.9 | 6.1 | 0.00 | 0.00 | 0.00 | 55 | 1012.3 |
| 20260508203006 | 67 | 306 | 4.3 | 10.4 | 0.00 | 0.00 | 0.00 | 53 | 1012.2 |
| 20260508201537 | 67 | 306 | 2.6 | 7.0 | 0.00 | 0.00 | 0.00 | 53 | 1012.6 |
| 20260508200032 | 67 | 269 | 0.9 | 7.0 | 0.00 | 0.00 | 0.00 | 51 | 1012.7 |
| 20260508194603 | 67 | 273 | 2.6 | 7.0 | 0.00 | 0.00 | 0.00 | 51 | 1013.1 |
| 20260508193150 | 66 | 294 | 1.7 | 6.1 | 0.00 | 0.00 | 0.00 | 53 | 1013.2 |
| 20260508191533 | 66 | 270 | 1.7 | 6.1 | 0.00 | 0.00 | 0.00 | 54 | 1013.6 |